Weather History for Wolf Point, MT

Change the Weather History Date:

Sunday, April 21, 2013

  Actual Average Record
Temperature  
Mean Temperature 33 °F -  
Max Temperature 42 °F 62 °F 75 °F (2009)
Min Temperature 23 °F 30 °F 15 °F (2008)
Degree Days  
Heating Degree Days 32    
Cooling Degree Days 0    
Moisture  
Dew Point 24 °F    
Average Humidity 64    
Maximum Humidity 87    
Minimum Humidity 38    
Precipitation  
Precipitation 0.01 in 0.04 in 0.09 in (1999)
Month to date precipitation 0.22 0.53  
Year to date precipitation 0.95 1.51  
Sea Level Pressure  
Sea Level Pressure 30.17 in    
Wind  
Wind Speed 14 mph (NNW)    
Max Wind Speed 18 mph    
Max Gust Speed 29 mph    
Visibility 10 miles    
Events      
T = Trace of Precipitation, MM = Missing Value Source: NWS Daily Summary

Daily Weather History Graph

Daily Weather History Graph

Search for Another Location

Airport:

Trip Planner

Search our weather history database for the weather conditions in past years. The results will help you decide how hot, cold, wet, or windy it might be!

Date:

Astronomy

Apr. 21, 2013 Rise Set
Actual Time 6:00 AM MDT 8:01 PM MDT
Civil Twilight 5:27 AM MDT 8:35 PM MDT
Nautical Twilight 4:46 AM MDT 9:17 PM MDT
Astronomical Twilight 4:00 AM MDT 10:03 PM MDT
Moon 3:32 PM MDT (4/21) 3:44 AM MDT (4/21)
Length of Visible Light 15h 08m
Length of Day
14h 01m
Waxing Gibbous, 80% of the Moon is Illuminated
Apr 21
Waxing Gibbous
Apr 25
Full
May 2
Last Quarter
May 9
New
May 17
First Quarter

Hourly Weather History & Observations

Time (MDT) Temp. Windchill Dew Point Humidity Pressure Visibility Wind Dir Wind Speed Gust Speed Precip Events Conditions
12:27 AM 39.2 °F 29.8 °F 35.6 °F 87% 29.89 in 10.0 mi NNW 18.4 mph 23.0 mph N/A   Mostly Cloudy
12:53 AM 39.0 °F 29.6 °F 34.0 °F 82% 29.96 in 10.0 mi NNW 18.4 mph 25.3 mph N/A   Overcast
1:38 AM 37.4 °F 28.5 °F 32.0 °F 81% 29.94 in 10.0 mi NNW 15.0 mph - N/A   Overcast
1:53 AM 37.0 °F 29.8 °F 32.0 °F 82% 29.99 in 10.0 mi NNW 10.4 mph - N/A   Overcast
2:53 AM 37.0 °F 29.8 °F 28.9 °F 73% 30.02 in 10.0 mi WNW 10.4 mph - N/A   Overcast
3:53 AM 36.0 °F 28.0 °F 30.0 °F 79% 30.03 in 10.0 mi WNW 11.5 mph - 0.01 in   Overcast
4:53 AM 35.1 °F 28.6 °F 28.0 °F 76% 30.06 in 10.0 mi NW 8.1 mph - N/A   Overcast
5:53 AM 34.0 °F 26.6 °F 25.0 °F 70% 30.10 in 10.0 mi WNW 9.2 mph - N/A   Overcast
6:53 AM 34.0 °F 27.2 °F 25.0 °F 70% 30.13 in 10.0 mi WNW 8.1 mph - N/A   Overcast
7:31 AM 33.8 °F 25.8 °F 24.8 °F 70% 30.10 in 10.0 mi West 10.4 mph - N/A   Overcast
7:53 AM 35.1 °F 25.2 °F 25.0 °F 67% 30.16 in 10.0 mi NW 16.1 mph - N/A   Overcast
8:39 AM 35.6 °F 25.5 °F 24.8 °F 65% 30.12 in 10.0 mi NW 17.3 mph 28.8 mph N/A   Overcast
8:53 AM 34.0 °F 23.4 °F 24.1 °F 67% 30.18 in 10.0 mi NW 17.3 mph - N/A   Overcast
9:53 AM 34.0 °F 23.4 °F 24.1 °F 67% 30.20 in 10.0 mi NNW 17.3 mph 24.2 mph N/A   Overcast
10:53 AM 35.1 °F 25.9 °F 23.0 °F 61% 30.22 in 10.0 mi NNW 13.8 mph 25.3 mph N/A   Overcast
11:05 AM 35.6 °F 25.5 °F 21.2 °F 56% 30.16 in 10.0 mi NNW 17.3 mph - N/A   Overcast
11:53 AM 39.0 °F 29.9 °F 23.0 °F 53% 30.22 in 10.0 mi NW 17.3 mph 26.5 mph N/A   Overcast
12:53 PM 39.9 °F 31.4 °F 21.9 °F 49% 30.21 in 10.0 mi NW 16.1 mph 24.2 mph N/A   Mostly Cloudy
1:53 PM 39.9 °F 32.1 °F 21.9 °F 49% 30.22 in 10.0 mi NW 13.8 mph 21.9 mph N/A   Scattered Clouds
2:53 PM 41.0 °F 32.8 °F 19.9 °F 43% 30.22 in 10.0 mi North 16.1 mph - N/A   Scattered Clouds
3:53 PM 41.0 °F 32.8 °F 18.0 °F 40% 30.23 in 10.0 mi NNW 16.1 mph 24.2 mph N/A   Partly Cloudy
4:53 PM 39.9 °F 31.4 °F 16.0 °F 38% 30.25 in 10.0 mi NNW 16.1 mph 21.9 mph N/A   Clear
5:53 PM 39.0 °F 30.3 °F 19.0 °F 45% 30.27 in 10.0 mi North 16.1 mph 23.0 mph N/A   Clear
6:53 PM 37.0 °F 28.1 °F 19.0 °F 48% 30.27 in 10.0 mi North 15.0 mph 21.9 mph N/A   Clear
7:53 PM 32.0 °F 23.6 °F 18.0 °F 56% 30.31 in 10.0 mi North 10.4 mph - N/A   Clear
8:53 PM 30.0 °F 23.2 °F 18.0 °F 61% 30.33 in 10.0 mi NNE 6.9 mph - N/A   Clear
9:53 PM 27.0 °F - 18.0 °F 69% 30.38 in 10.0 mi Calm Calm - N/A   Clear
10:53 PM 26.1 °F 20.5 °F 17.1 °F 69% 30.40 in 10.0 mi NE 4.6 mph - N/A   Clear
11:53 PM 24.8 °F 16.9 °F 17.6 °F 74% 30.34 in 10.0 mi NE 6.9 mph - N/A   Clear